Wind_Speed
71 72 72 73 74 74 74 75 76 78 79 81 83 85 86 87 86 84 82 81 83 83 84 85 86 88 89 89 89 90 91 93 95 96 97 97 98 99 99 98 98 98
76 75 74 74 74 75 76 78 79 80 81 83 85 87 89 89 89 88 87 86 86 87 87 88 89 90 90 90 91 92 92 94 97 99 100 100 101 102 101 101 100 100
78 78 78 78 77 78 80 81 82 83 84 84 86 89 90 91 92 91 91 91 91 90 91 91 91 91 91 92 93 94 95 96 97 99 101 102 103 103 104 103 103 102
81 82 84 84 84 85 86 86 86 87 87 87 89 90 92 93 93 93 94 95 96 95 95 96 95 95 95 95 96 97 98 99 99 101 102 104 105 105 104 104 103 102
86 87 88 88 88 89 89 89 90 90 91 91 91 92 93 94 95 95 96 97 99 100 100 100 100 99 99 99 99 100 100 101 102 103 105 106 106 106 105 104 103 102
90 90 91 91 91 92 92 92 94 94 93 93 93 94 95 96 97 98 99 99 101 102 103 103 102 101 101 101 101 101 101 102 102 104 106 107 107 106 105 104 103 102
93 94 94 94 94 94 95 96 98 97 96 96 97 96 96 98 100 101 101 101 102 103 104 105 104 102 101 102 103 104 104 104 104 105 107 108 108 107 106 104 103 102
96 97 97 97 97 97 98 100 101 100 99 100 100 99 99 100 101 103 103 103 104 105 106 107 106 105 104 104 105 106 107 106 106 106 107 108 108 107 105 104 102 101
99 100 101 100 100 100 102 103 103 102 103 103 104 104 104 104 104 105 106 107 107 107 108 108 108 107 106 105 106 107 107 107 107 107 107 107 107 106 104 103 102 101
101 102 104 104 105 106 106 106 105 106 107 108 109 110 110 108 107 107 108 109 110 109 109 109 110 109 108 106 107 108 108 107 107 106 106 106 105 104 103 102 101 100
102 103 105 107 109 110 109 109 109 110 111 112 113 114 114 112 110 109 110 111 111 111 110 111 112 111 110 108 108 108 108 107 106 105 104 105 104 103 102 101 101 101
103 105 106 109 110 111 111 112 112 113 114 115 116 116 116 114 113 112 112 113 113 113 113 113 113 112 110 108 106 105 104 103 102 102 103 104 103 103 102 102 102 102
105 106 108 110 111 112 113 114 114 115 115 116 116 116 116 115 114 113 113 114 114 114 114 114 114 112 109 106 103 100 99 98 99 100 101 102 102 102 103 103 103 103
104 106 106 108 109 110 112 114 115 116 116 116 117 116 116 116 115 114 113 114 114 114 114 113 112 109 106 103 101 98 97 97 98 98 99 99 100 101 102 103 103 103
100 99 99 99 100 102 104 108 111 114 115 116 117 116 115 114 113 113 113 114 114 113 111 110 108 106 103 101 99 98 98 99 99 98 98 99 100 101 101 102 102 102
98 97 97 96 95 95 96 98 101 104 107 110 111 111 110 110 110 110 110 110 110 109 108 107 106 104 102 100 99 99 100 100 100 100 100 100 100 101 101 101 101 101
99 98 98 97 96 95 95 95 95 96 98 101 103 105 106 107 107 107 108 109 109 108 107 106 104 102 100 99 99 100 100 101 101 101 100 100 100 100 99 100 100 100
102 100 99 99 100 100 101 102 101 101 101 103 104 106 107 107 107 108 108 109 108 108 106 105 102 100 99 99 100 100 101 101 101 100 100 99 98 98 98 98 98 97
110 109 108 108 108 108 108 109 109 111 112 113 113 112 111 110 110 110 109 109 109 108 106 103 102 100 100 101 102 102 102 102 101 100 99 98 98 98 97 96 95 93
119 119 118 118 118 116 115 114 114 117 118 119 118 116 115 114 113 112 112 112 112 110 107 106 106 106 106 106 105 105 104 103 102 101 99 98 98 97 96 95 93 91
124 124 125 125 124 123 121 120 120 120 120 120 119 118 118 118 118 118 118 119 117 115 113 113 112 111 110 109 107 106 105 104 103 101 100 99 98 97 95 94 93 92
126 126 125 125 123 122 120 119 119 118 117 117 117 118 119 120 121 121 122 122 120 117 117 116 114 113 111 109 107 105 104 105 104 102 100 99 98 97 96 95 94 94
122 120 119 118 116 113 112 112 111 111 112 113 114 116 117 118 119 120 120 119 118 116 116 115 114 112 110 108 106 105 105 105 104 102 101 99 99 98 98 98 97 96
115 113 111 110 109 107 107 107 107 108 110 111 112 113 114 115 115 116 116 116 116 115 114 113 112 110 109 107 106 106 105 105 103 102 101 100 100 100 100 100 99 98
110 109 107 106 105 105 105 106 106 107 108 110 111 111 111 112 112 112 113 113 113 112 112 111 110 109 108 107 106 105 105 104 102 101 101 101 101 102 101 101 100 99
107 107 105 105 104 104 104 105 105 106 107 108 109 109 109 110 110 110 111 111 110 110 109 109 108 107 106 106 105 104 104 103 103 103 103 103 103 102 102 101 100 99
Wind_Direction
281 282 282 282 281 281 281 281 282 283 284 285 286 287 287 287 286 285 284 284 284 285 286 286 287 287 287 287 288 288 287 287 287 287 286 286 285 285 285 285 284 284
280 281 282 281 281 281 281 281 282 282 283 285 285 286 287 287 287 286 285 285 285 285 286 286 287 287 287 287 286 286 286 286 287 287 287 287 287 287 287 287 286 286
279 281 282 282 282 282 282 281 281 282 282 283 283 284 285 285 286 286 286 286 285 285 286 286 286 286 286 286 286 285 286 286 286 287 287 288 288 288 288 287 287 287
280 281 282 283 283 283 283 282 282 282 282 282 283 282 283 283 285 286 286 286 286 286 285 285 285 285 285 285 285 285 285 285 286 287 287 287 287 288 288 287 287 287
280 280 281 281 281 281 281 281 281 281 281 281 282 282 281 282 283 284 285 285 285 285 285 284 284 284 283 284 284 284 284 284 285 286 286 286 286 287 287 286 286 287
277 278 279 279 279 279 279 278 279 279 280 280 281 282 281 281 281 282 283 283 283 284 284 284 284 284 284 283 284 284 284 284 284 285 285 285 285 286 286 286 286 286
276 277 278 278 278 278 277 277 278 278 279 280 280 281 281 280 280 280 281 283 283 283 283 284 284 285 284 284 284 284 284 283 283 284 284 284 284 285 285 285 285 286
277 277 277 277 277 277 276 276 277 277 278 279 279 280 280 279 279 278 279 281 282 282 282 282 283 284 284 283 282 283 283 283 283 283 283 283 284 284 285 285 285 285
277 277 277 277 277 277 276 277 277 277 277 278 278 279 279 278 278 277 277 279 280 280 280 281 282 283 283 282 281 282 282 282 282 283 282 283 284 285 285 285 285 285
277 277 278 278 277 277 277 277 277 277 277 277 277 278 278 278 278 277 277 278 279 279 280 280 281 282 282 281 281 282 282 282 282 282 282 283 284 285 285 285 285 285
275 275 276 276 275 275 275 275 275 275 275 275 276 276 277 278 278 278 277 277 278 279 279 278 279 280 281 280 280 281 281 281 281 281 281 282 284 284 285 285 285 285
275 275 275 274 274 274 274 273 273 272 273 273 273 274 275 276 277 276 276 276 276 277 277 276 277 279 279 279 279 280 280 280 281 281 282 282 283 284 284 285 285 284
274 274 274 275 275 275 274 273 272 272 272 272 272 273 274 275 276 275 275 274 274 275 275 276 277 278 279 279 280 281 281 282 283 283 283 283 284 284 284 284 285 285
274 274 275 275 275 275 274 273 272 272 272 271 272 273 274 275 275 274 274 274 274 275 275 276 277 278 279 280 281 282 283 284 285 284 284 284 284 285 285 285 285 285
274 274 274 275 275 275 274 273 272 272 271 272 272 273 274 274 274 274 274 274 274 275 275 276 278 279 280 281 282 283 284 286 286 286 286 286 286 286 286 286 286 287
271 271 271 272 273 273 273 273 273 273 272 272 273 273 273 273 273 273 274 274 274 275 276 278 279 280 281 282 283 284 286 287 287 287 288 287 287 287 287 288 288 289
274 274 274 274 275 276 276 276 276 276 275 275 274 274 274 274 274 274 275 275 276 277 278 280 281 281 283 284 285 286 287 288 288 288 288 289 289 289 289 290 290 289
281 281 281 281 281 282 282 282 282 282 281 280 279 277 277 277 277 278 278 279 279 280 280 281 282 283 284 285 286 287 288 289 289 289 289 290 290 290 291 291 290 290
285 285 285 285 284 284 284 284 285 285 285 284 283 282 280 280 279 280 280 280 280 281 281 283 284 285 287 288 289 289 290 290 290 290 290 291 291 291 291 291 290 289
283 283 283 283 283 283 283 284 284 284 285 284 284 284 283 283 282 283 283 284 284 284 285 287 288 289 289 290 290 290 290 291 291 291 291 291 292 292 291 291 290 289
278 279 279 280 281 281 282 283 283 284 284 284 284 284 284 284 285 285 285 285 286 286 287 288 289 289 289 289 290 290 290 291 291 291 291 292 292 292 291 290 290 289
277 277 277 278 278 279 280 281 281 282 282 281 281 282 282 282 282 282 283 283 284 286 286 287 287 288 288 289 289 289 290 290 291 291 292 292 292 291 291 290 290 289
277 277 277 277 278 278 279 279 279 279 279 279 279 279 279 280 280 280 281 282 283 284 285 285 286 287 287 288 289 289 290 290 290 291 291 291 291 291 291 290 290 290
277 276 276 277 277 278 278 278 278 278 279 279 279 279 279 279 280 280 281 282 283 283 284 285 285 286 287 288 289 289 289 289 290 290 290 290 290 291 291 290 290 290
276 276 276 276 277 277 278 278 278 279 279 279 279 279 279 280 280 280 281 281 282 283 283 284 285 286 287 287 288 288 288 288 288 289 289 290 290 291 291 291 291 291
275 275 276 276 277 277 277 278 279 279 279 278 279 279 279 280 280 280 281 281 282 282 283 284 284 285 286 286 287 287 287 288 288 289 290 290 290 291 291 291 291 291
Height
10613 10612 10611 10610 10609 10607 10606 10604 10601 10599 10596 10592 10589 10586 10584 10583 10584 10587 10588 10588 10585 10582 10580 10577 10575 10572 10570 10567 10565 10562 10559 10556 10553 10550 10548 10545 10542 10540 10538 10536 10534 10532
10603 10602 10601 10600 10599 10597 10596 10593 10591 10590 10587 10583 10579 10574 10571 10569 10569 10571 10572 10573 10572 10570 10568 10565 10563 10560 10558 10555 10552 10549 10547 10544 10540 10537 10533 10531 10528 10525 10523 10521 10519 10517
10592 10592 10591 10589 10588 10586 10584 10582 10580 10578 10576 10574 10570 10565 10561 10557 10556 10556 10555 10555 10556 10556 10555 10553 10550 10548 10545 10542 10539 10536 10533 10530 10527 10523 10520 10517 10514 10511 10509 10506 10504 10502
10581 10580 10579 10578 10576 10574 10572 10570 10567 10565 10564 10562 10559 10555 10551 10548 10545 10543 10541 10539 10538 10539 10539 10539 10537 10535 10532 10529 10526 10523 10519 10516 10513 10509 10506 10503 10501 10498 10496 10493 10490 10488
10570 10568 10567 10565 10564 10562 10560 10557 10554 10552 10551 10549 10547 10543 10540 10537 10535 10532 10529 10526 10523 10522 10522 10522 10521 10520 10518 10516 10513 10510 10506 10503 10499 10496 10492 10490 10488 10485 10482 10480 10477 10474
10557 10555 10553 10552 10551 10549 10547 10544 10541 10539 10538 10536 10534 10531 10528 10525 10524 10521 10518 10515 10512 10509 10507 10505 10505 10504 10502 10500 10498 10495 10492 10489 10486 10482 10478 10476 10474 10472 10469 10466 10463 10460
10543 10541 10540 10539 10537 10536 10534 10530 10527 10527 10525 10524 10522 10519 10515 10512 10510 10508 10506 10503 10500 10497 10493 10491 10491 10489 10487 10485 10483 10481 10478 10475 10472 10469 10465 10463 10460 10458 10455 10452 10449 10446
10529 10528 10527 10525 10524 10522 10520 10516 10514 10514 10513 10511 10508 10506 10503 10500 10496 10495 10493 10491 10488 10485 10481 10478 10477 10475 10473 10471 10469 10466 10463 10461 10458 10455 10452 10448 10446 10444 10442 10439 10436 10432
10516 10514 10511 10510 10509 10507 10505 10502 10501 10501 10499 10496 10494 10492 10490 10486 10484 10482 10480 10478 10475 10472 10468 10465 10464 10462 10459 10456 10454 10451 10449 10446 10444 10441 10437 10434 10432 10430 10427 10425 10421 10418
10504 10500 10496 10495 10493 10490 10489 10488 10488 10486 10484 10481 10479 10477 10474 10472 10471 10469 10467 10465 10462 10459 10456 10453 10450 10448 10445 10443 10440 10437 10434 10432 10429 10426 10423 10420 10418 10415 10413 10410 10407 10403
10491 10487 10484 10480 10476 10475 10475 10474 10473 10471 10468 10466 10464 10461 10459 10458 10457 10454 10452 10450 10448 10445 10443 10440 10437 10434 10432 10429 10426 10423 10421 10418 10415 10412 10409 10407 10404 10401 10398 10395 10392 10389
10476 10473 10469 10465 10462 10461 10460 10458 10456 10454 10452 10450 10447 10445 10444 10443 10441 10439 10437 10435 10433 10431 10428 10425 10422 10420 10418 10416 10413 10411 10408 10405 10402 10399 10396 10393 10390 10387 10383 10380 10377 10373
10461 10457 10453 10450 10448 10446 10444 10441 10439 10437 10435 10433 10431 10429 10428 10427 10425 10423 10421 10419 10417 10415 10412 10409 10407 10405 10403 10401 10399 10397 10395 10392 10389 10386 10383 10379 10376 10372 10368 10365 10361 10357
10444 10441 10439 10437 10434 10431 10428 10425 10422 10421 10419 10416 10414 10414 10412 10411 10409 10407 10405 10402 10401 10399 10396 10394 10392 10390 10389 10386 10384 10383 10380 10378 10375 10372 10368 10364 10360 10357 10352 10349 10346 10341
10428 10427 10425 10421 10418 10415 10412 10409 10407 10405 10403 10401 10400 10399 10397 10396 10393 10390 10388 10386 10384 10382 10380 10378 10377 10375 10373 10372 10370 10368 10365 10362 10359 10356 10353 10349 10344 10341 10337 10333 10330 10326
10413 10412 10409 10406 10402 10399 10396 10394 10392 10390 10388 10387 10385 10384 10382 10379 10376 10374 10372 10369 10367 10365 10364 10362 10361 10360 10359 10358 10355 10352 10349 10346 10343 10339 10336 10333 10328 10324 10321 10318 10314 10310
10394 10393 10391 10389 10386 10383 10380 10378 10376 10375 10374 10373 10371 10368 10366 10363 10361 10358 10355 10352 10351 10350 10348 10346 10345 10345 10344 10342 10338 10335 10332 10329 10326 10323 10320 10316 10313 10309 10306 10303 10299 10295
10373 10372 10373 10372 10370 10367 10365 10363 10361 10360 10358 10357 10355 10353 10350 10348 10346 10343 10339 10337 10335 10333 10331 10330 10330 10329 10327 10325 10321 10318 10316 10312 10309 10307 10304 10300 10298 10294 10291 10287 10283 10279
10355 10356 10358 10357 10355 10353 10351 10350 10350 10347 10344 10342 10339 10337 10334 10332 10330 10326 10323 10321 10317 10315 10315 10314 10313 10312 10309 10307 10304 10301 10299 10296 10294 10291 10288 10286 10282 10279 10276 10272 10268 10265
10342 10342 10343 10341 10340 10338 10337 10337 10336 10334 10331 10328 10323 10320 10317 10314 10312 10309 10306 10303 10299 10299 10299 10298 10296 10294 10293 10291 10288 10286 10284 10281 10278 10276 10273 10271 10267 10264 10261 10257 10254 10251
10328 10327 10327 10326 10325 10323 10323 10323 10321 10319 10315 10311 10307 10304 10301 10298 10296 10294 10290 10286 10285 10285 10285 10283 10281 10279 10278 10276 10273 10272 10270 10266 10263 10261 10259 10256 10253 10249 10246 10243 10240 10237
10311 10310 10310 10310 10309 10309 10309 10308 10306 10304 10300 10296 10293 10290 10287 10285 10283 10280 10277 10274 10273 10273 10271 10269 10268 10265 10263 10261 10259 10258 10256 10252 10248 10246 10244 10241 10237 10234 10231 10228 10225 10223
10292 10293 10293 10293 10293 10294 10295 10293 10291 10289 10286 10282 10279 10277 10274 10272 10269 10266 10263 10261 10260 10260 10258 10255 10254 10251 10249 10247 10245 10244 10242 10239 10235 10232 10229 10226 10223 10219 10216 10213 10210 10207
10275 10276 10276 10277 10277 10278 10278 10277 10275 10273 10270 10266 10263 10261 10259 10257 10255 10252 10250 10248 10246 10245 10243 10241 10239 10237 10235 10233 10232 10230 10228 10225 10222 10219 10216 10212 10209 10205 10202 10198 10194 10192
10259 10259 10260 10261 10262 10262 10260 10260 10259 10256 10254 10251 10247 10246 10244 10242 10241 10239 10236 10234 10232 10230 10228 10226 10225 10223 10221 10220 10218 10216 10214 10211 10207 10204 10201 10198 10195 10191 10188 10184 10180 10177
10244 10243 10244 10245 10245 10245 10244 10243 10242 10240 10237 10235 10233 10231 10230 10227 10226 10224 10221 10219 10217 10216 10214 10212 10211 10210 10208 10207 10205 10202 10200 10196 10192 10189 10186 10183 10181 10177 10174 10171 10167 10163